STARLINK-1338 (45532 NORAD) Tracking and Keplerian Element Data

This shows tracking and keplerian element data for the satellite.

Feedback or suggestion? Click here.




ElementValue
Catalog45532
NameSTARLINK-1338
Epoch Orbit547
Epoch Day144.16667824
Epoch Year2020
RAAN250.6134
Inclination52.9958
Eccentricity0.0004064
Argument of Perigee17.6684
Mean Anonmoly296.6221
Mean Motion15.47927517
Decay Rate0.04889283
L11 45532U 20025B 20144.16667824 .04889283 00000-0 79679-1 0 9990
L22 45532 52.9958 250.6134 0004064 17.6684 296.6221 15.47927517 5478

Live tracking and technical data element details for STARLINK-1338 (NORAD 45532). STARLINK-1338 can be tracked NOW for your location showing map with azimuth and elevation plus other details from your city location.

Track the satellite on the map from your city or location and see movement details for azimuth, elevation, latitude, longitude, range, height, and movement on the map or in text.







IsCatalogInMostPopularTable: catalog: 45532, numindb: 6
Update: records affected: 1



GetName: 45532 STARLINK-1338

Hit Count: updated at: Mon, 25 May 2020 07:33:00 GMT